AWH3349 EDLP-EDXW

Flight info

Callsign AWH3349
Flight time 1h 3m
Altitude 23000
Route WRB1W/24 WRB P12 NORTA/N0419F220 P605 HAM M852 SOKWO T814 EXNEL DCT OLDIP
Aircraft C25C/M-SDE2E3FGHRWXY/LB1

Departure

Time 2026-05-06 15:29
Airport Paderborn Lippstadt Airport (EDLP)

Arrival

Time 2026-05-06 16:33
Airport Westerland Sylt Airport (EDXW)
Time Latitude Longitude Altitude Speed Heading
2026-05-06 14:51 51.61038 8.61807 724 ft 0 kts 147°
2026-05-06 15:21 51.61037 8.61825 725 ft 4 kts 64°
2026-05-06 15:22 51.61072 8.61811 724 ft 8 kts 327°
2026-05-06 15:22 51.61113 8.61771 724 ft 0 kts 343°
2026-05-06 15:24 51.61134 8.61803 725 ft 11 kts 56°
2026-05-06 15:25 51.61186 8.61934 725 ft 15 kts 57°
2026-05-06 15:25 51.61258 8.61986 720 ft 13 kts 11°
2026-05-06 15:25 51.61359 8.62034 712 ft 17 kts 31°
2026-05-06 15:25 51.61427 8.62161 705 ft 15 kts 57°
2026-05-06 15:26 51.61476 8.62282 699 ft 15 kts 57°
2026-05-06 15:26 51.61542 8.62444 695 ft 19 kts 57°
2026-05-06 15:26 51.61613 8.62617 691 ft 19 kts 57°
2026-05-06 15:26 51.61684 8.62792 685 ft 19 kts 57°
2026-05-06 15:27 51.61753 8.62960 678 ft 14 kts 57°
2026-05-06 15:27 51.61811 8.63066 676 ft 10 kts 20°
2026-05-06 15:27 51.61873 8.63057 676 ft 8 kts 335°
2026-05-06 15:27 51.61905 8.63009 676 ft 5 kts 298°
2026-05-06 15:28 51.61917 8.62975 676 ft 3 kts 299°
2026-05-06 15:28 51.61930 8.62949 676 ft 5 kts 313°
2026-05-06 15:28 51.61929 8.62905 677 ft 9 kts 238°
2026-05-06 15:28 51.61803 8.62594 684 ft 75 kts 237°
2026-05-06 15:29 51.61375 8.61520 968 ft 142 kts 239°
2026-05-06 15:29 51.60795 8.60170 2268 ft 142 kts 239°
2026-05-06 15:29 51.60246 8.58735 3146 ft 156 kts 243°
2026-05-06 15:29 51.59723 8.57195 3858 ft 160 kts 243°
2026-05-06 15:30 51.59084 8.55655 4666 ft 167 kts 236°
2026-05-06 15:30 51.58436 8.54163 5763 ft 156 kts 237°
2026-05-06 15:30 51.57845 8.52691 6539 ft 168 kts 237°
2026-05-06 15:30 51.57182 8.51069 7327 ft 177 kts 234°
2026-05-06 15:31 51.56376 8.49538 8162 ft 187 kts 219°
2026-05-06 15:31 51.55147 8.48688 8990 ft 198 kts 192°
2026-05-06 15:31 51.53769 8.48838 9994 ft 202 kts 168°
2026-05-06 15:32 51.51533 8.51734 11623 ft 219 kts 131°
2026-05-06 15:32 51.50692 8.53789 12461 ft 225 kts 117°
2026-05-06 15:32 51.50501 8.56339 13265 ft 235 kts 88°
2026-05-06 15:32 51.50610 8.58926 14089 ft 234 kts 91°
2026-05-06 15:33 51.50639 8.61538 14862 ft 233 kts 92°
2026-05-06 15:33 51.50629 8.64155 15690 ft 233 kts 94°
2026-05-06 15:33 51.50631 8.66723 16495 ft 233 kts 94°
2026-05-06 15:33 51.50626 8.69334 17261 ft 232 kts 94°
2026-05-06 15:34 51.50631 8.71936 18030 ft 232 kts 95°
2026-05-06 15:34 51.50631 8.74509 18699 ft 233 kts 94°
2026-05-06 15:34 51.50628 8.77093 19370 ft 233 kts 94°
2026-05-06 15:34 51.50630 8.79702 20062 ft 234 kts 94°
2026-05-06 15:35 51.50624 8.82329 20775 ft 234 kts 94°
2026-05-06 15:35 51.50628 8.84947 21497 ft 234 kts 93°
2026-05-06 15:35 51.50624 8.87562 22228 ft 234 kts 93°
2026-05-06 15:35 51.50616 8.90179 22784 ft 243 kts 93°
2026-05-06 15:36 51.50610 8.93051 22827 ft 272 kts 93°
2026-05-06 15:36 51.50604 8.96259 22833 ft 298 kts 92°
2026-05-06 15:36 51.50600 8.99542 22826 ft 296 kts 92°
2026-05-06 15:36 51.50597 9.02887 22821 ft 297 kts 92°
2026-05-06 15:37 51.50585 9.06158 22819 ft 295 kts 92°
2026-05-06 15:37 51.50603 9.09458 22807 ft 295 kts 87°
2026-05-06 15:37 51.51261 9.12544 22805 ft 299 kts 59°
2026-05-06 15:37 51.52426 9.15303 22805 ft 298 kts 55°
2026-05-06 15:38 51.53679 9.17980 22802 ft 297 kts 53°
2026-05-06 15:38 51.54920 9.20634 22809 ft 295 kts 54°
2026-05-06 15:38 51.56109 9.23274 22806 ft 294 kts 54°
2026-05-06 15:38 51.57312 9.25935 22809 ft 293 kts 54°
2026-05-06 15:39 51.58517 9.28602 22809 ft 293 kts 54°
2026-05-06 15:39 51.59718 9.31249 22802 ft 293 kts 54°
2026-05-06 15:39 51.60904 9.33879 22799 ft 293 kts 54°
2026-05-06 15:39 51.62102 9.36536 22797 ft 292 kts 54°
2026-05-06 15:40 51.63299 9.39188 22810 ft 292 kts 54°
2026-05-06 15:40 51.64487 9.41833 22800 ft 291 kts 54°
2026-05-06 15:40 51.65677 9.44471 22801 ft 291 kts 54°
2026-05-06 15:40 51.66846 9.47080 22808 ft 290 kts 54°
2026-05-06 15:41 51.68038 9.49731 22801 ft 290 kts 54°
2026-05-06 15:41 51.69305 9.52214 22800 ft 289 kts 44°
2026-05-06 15:41 51.70735 9.54507 22799 ft 289 kts 45°
2026-05-06 15:41 51.72148 9.56837 22803 ft 288 kts 45°
2026-05-06 15:42 51.73539 9.59122 22801 ft 288 kts 45°
2026-05-06 15:42 51.74954 9.61426 22804 ft 288 kts 45°
2026-05-06 15:42 51.76349 9.63715 22807 ft 287 kts 45°
2026-05-06 15:42 51.77281 9.65235 22799 ft 287 kts 45°
2026-05-06 15:43 51.79147 9.68300 22808 ft 287 kts 45°
2026-05-06 15:43 51.80547 9.70597 22801 ft 287 kts 45°
2026-05-06 15:43 51.81495 9.72157 22799 ft 287 kts 45°
2026-05-06 15:43 51.82879 9.74431 22799 ft 287 kts 45°
2026-05-06 15:44 51.84285 9.76746 22793 ft 287 kts 45°
2026-05-06 15:44 51.85689 9.79061 22787 ft 288 kts 45°
2026-05-06 15:44 51.87275 9.80929 22795 ft 285 kts 17°
2026-05-06 15:44 51.89213 9.81506 22810 ft 282 kts
2026-05-06 15:45 51.91173 9.81859 22805 ft 282 kts
2026-05-06 15:45 51.93134 9.82174 22808 ft 283 kts
2026-05-06 15:45 51.95074 9.82550 22806 ft 283 kts
2026-05-06 15:45 51.97038 9.82948 22807 ft 284 kts
2026-05-06 15:46 51.99008 9.83332 22810 ft 285 kts
2026-05-06 15:46 52.00988 9.83714 22808 ft 286 kts
2026-05-06 15:46 52.02954 9.84093 22810 ft 286 kts
2026-05-06 15:46 52.04942 9.84483 22810 ft 286 kts
2026-05-06 15:47 52.06902 9.84865 22816 ft 287 kts
2026-05-06 15:47 52.08894 9.85250 22818 ft 287 kts
2026-05-06 15:47 52.10884 9.85645 22817 ft 287 kts
2026-05-06 15:47 52.12841 9.86023 22818 ft 286 kts
2026-05-06 15:48 52.14831 9.86411 22823 ft 286 kts
2026-05-06 15:48 52.16798 9.86799 22824 ft 285 kts
2026-05-06 15:48 52.18777 9.87183 22824 ft 285 kts
2026-05-06 15:48 52.20721 9.87568 22825 ft 285 kts
2026-05-06 15:49 52.22693 9.87951 22825 ft 284 kts
2026-05-06 15:49 52.24664 9.88347 22825 ft 284 kts
2026-05-06 15:49 52.26589 9.89103 22823 ft 285 kts 14°
2026-05-06 15:49 52.28500 9.89936 22825 ft 285 kts 12°
2026-05-06 15:50 52.30419 9.90761 22828 ft 285 kts 12°
2026-05-06 15:50 52.32315 9.91587 22830 ft 285 kts 13°
2026-05-06 15:50 52.34238 9.92442 22830 ft 285 kts 13°
2026-05-06 15:50 52.36160 9.93286 22833 ft 285 kts 14°
2026-05-06 15:51 52.38092 9.94137 22835 ft 285 kts 14°
2026-05-06 15:51 52.39997 9.94978 22835 ft 285 kts 14°
2026-05-06 15:51 52.41893 9.95810 22835 ft 285 kts 14°
2026-05-06 15:51 52.43810 9.96661 22834 ft 285 kts 14°
2026-05-06 15:52 52.45737 9.97513 22833 ft 284 kts 14°
2026-05-06 15:52 52.47631 9.98347 22834 ft 284 kts 14°
2026-05-06 15:52 52.49546 9.99196 22832 ft 284 kts 14°
2026-05-06 15:52 52.51435 10.00036 22831 ft 284 kts 14°
2026-05-06 15:53 52.53345 10.00879 22831 ft 283 kts 14°
2026-05-06 15:53 52.55240 10.01726 22830 ft 283 kts 14°
2026-05-06 15:53 52.57146 10.02568 22828 ft 283 kts 14°
2026-05-06 15:53 52.59061 10.03427 22834 ft 283 kts 14°
2026-05-06 15:54 52.60946 10.04266 22834 ft 283 kts 14°
2026-05-06 15:54 52.62863 10.05123 22832 ft 283 kts 14°
2026-05-06 15:54 52.64754 10.05971 22832 ft 283 kts 14°
2026-05-06 15:54 52.66657 10.06819 22828 ft 283 kts 14°
2026-05-06 15:55 52.68539 10.07666 22827 ft 283 kts 14°
2026-05-06 15:55 52.70449 10.08519 22827 ft 283 kts 14°
2026-05-06 15:55 52.72362 10.09379 22826 ft 283 kts 14°
2026-05-06 15:55 52.74238 10.10223 22826 ft 283 kts 14°
2026-05-06 15:56 52.76147 10.11078 22824 ft 283 kts 14°
2026-05-06 15:56 52.78067 10.11796 22819 ft 282 kts
2026-05-06 15:56 52.80034 10.11863 22823 ft 281 kts 359°
2026-05-06 15:56 52.81977 10.11919 22833 ft 281 kts 359°
2026-05-06 15:57 52.83936 10.11979 22835 ft 281 kts
2026-05-06 15:57 52.85905 10.12044 22838 ft 281 kts
2026-05-06 15:57 52.87843 10.12114 22834 ft 281 kts
2026-05-06 15:57 52.89814 10.12173 22832 ft 282 kts
2026-05-06 15:58 52.91782 10.12239 22832 ft 282 kts
2026-05-06 15:58 52.93725 10.12304 22834 ft 282 kts
2026-05-06 15:58 52.95699 10.12368 22836 ft 283 kts
2026-05-06 15:58 52.97672 10.12435 22835 ft 284 kts
2026-05-06 15:59 52.99630 10.12497 22838 ft 285 kts
2026-05-06 15:59 53.01625 10.12566 22837 ft 285 kts
2026-05-06 15:59 53.03595 10.12627 22839 ft 285 kts
2026-05-06 15:59 53.05577 10.12696 22840 ft 285 kts
2026-05-06 16:00 53.07569 10.12762 22839 ft 285 kts
2026-05-06 16:00 53.09540 10.12824 22842 ft 284 kts
2026-05-06 16:00 53.11496 10.12894 22843 ft 284 kts
2026-05-06 16:00 53.13488 10.12956 22846 ft 284 kts
2026-05-06 16:01 53.15447 10.13024 22852 ft 284 kts
2026-05-06 16:01 53.17420 10.13089 22854 ft 283 kts
2026-05-06 16:01 53.19403 10.13153 22857 ft 283 kts
2026-05-06 16:01 53.21366 10.13222 22858 ft 285 kts
2026-05-06 16:02 53.23368 10.13283 22861 ft 287 kts
2026-05-06 16:02 53.25367 10.13354 22861 ft 289 kts
2026-05-06 16:02 53.27367 10.13420 22863 ft 290 kts
2026-05-06 16:02 53.29381 10.13486 22863 ft 289 kts
2026-05-06 16:03 53.31395 10.13558 22865 ft 288 kts
2026-05-06 16:03 53.33403 10.13621 22862 ft 287 kts
2026-05-06 16:03 53.35400 10.13691 22862 ft 286 kts
2026-05-06 16:03 53.37378 10.13757 22861 ft 286 kts
2026-05-06 16:04 53.39381 10.13829 22861 ft 285 kts
2026-05-06 16:04 53.41346 10.14269 22859 ft 285 kts
2026-05-06 16:04 53.43294 10.14680 22865 ft 285 kts
2026-05-06 16:04 53.45267 10.15099 22875 ft 285 kts
2026-05-06 16:05 53.47231 10.15550 22877 ft 285 kts
2026-05-06 16:05 53.49202 10.16014 22876 ft 285 kts
2026-05-06 16:05 53.51164 10.16470 22877 ft 284 kts
2026-05-06 16:05 53.53109 10.16913 22879 ft 284 kts
2026-05-06 16:06 53.55074 10.17371 22879 ft 284 kts
2026-05-06 16:06 53.57041 10.17825 22879 ft 284 kts
2026-05-06 16:06 53.58983 10.18273 22879 ft 284 kts
2026-05-06 16:06 53.60950 10.18734 22880 ft 283 kts
2026-05-06 16:07 53.62905 10.19182 22880 ft 283 kts
2026-05-06 16:07 53.64837 10.19634 22879 ft 283 kts
2026-05-06 16:07 53.66798 10.20089 22883 ft 283 kts
2026-05-06 16:07 53.68738 10.20374 22873 ft 281 kts 353°
2026-05-06 16:08 53.70650 10.19693 22880 ft 279 kts 344°
2026-05-06 16:08 53.72544 10.18892 22880 ft 279 kts 343°
2026-05-06 16:08 53.74408 10.18100 22882 ft 279 kts 344°
2026-05-06 16:08 53.76311 10.17324 22884 ft 282 kts 344°
2026-05-06 16:09 53.78186 10.16442 22884 ft 282 kts 334°
2026-05-06 16:09 53.79870 10.14754 22891 ft 281 kts 323°
2026-05-06 16:09 53.81513 10.12962 22892 ft 284 kts 326°
2026-05-06 16:09 53.83252 10.11331 22895 ft 286 kts 329°
2026-05-06 16:10 53.85018 10.09806 22896 ft 287 kts 329°
2026-05-06 16:10 53.86800 10.08222 22897 ft 288 kts 329°
2026-05-06 16:10 53.88566 10.06603 22896 ft 289 kts 328°
2026-05-06 16:10 53.90344 10.04984 22894 ft 290 kts 328°
2026-05-06 16:11 53.92106 10.03380 22892 ft 291 kts 329°
2026-05-06 16:11 53.93891 10.01764 22898 ft 291 kts 328°
2026-05-06 16:11 53.95681 10.00137 22898 ft 291 kts 329°
2026-05-06 16:11 53.97466 9.98504 22668 ft 296 kts 329°
2026-05-06 16:12 53.99301 9.96836 22289 ft 299 kts 329°
2026-05-06 16:12 54.01155 9.95140 21888 ft 302 kts 329°
2026-05-06 16:12 54.03005 9.93453 21491 ft 304 kts 329°
2026-05-06 16:12 54.04857 9.91760 21098 ft 305 kts 329°
2026-05-06 16:13 54.06740 9.90033 20689 ft 307 kts 329°
2026-05-06 16:13 54.08638 9.88297 20281 ft 308 kts 329°
2026-05-06 16:13 54.10282 9.86055 19846 ft 301 kts 304°
2026-05-06 16:13 54.11351 9.83071 19580 ft 295 kts 296°
2026-05-06 16:14 54.12413 9.80075 19213 ft 302 kts 300°
2026-05-06 16:14 54.13679 9.77163 18794 ft 310 kts 307°
2026-05-06 16:14 54.15087 9.74309 18351 ft 315 kts 307°
2026-05-06 16:14 54.16465 9.71353 17879 ft 319 kts 305°
2026-05-06 16:15 54.17815 9.68366 17426 ft 321 kts 305°
2026-05-06 16:15 54.19188 9.65326 16971 ft 322 kts 305°
2026-05-06 16:15 54.20573 9.62305 16520 ft 323 kts 306°
2026-05-06 16:15 54.21957 9.59277 16068 ft 323 kts 306°
2026-05-06 16:16 54.23335 9.56254 15615 ft 323 kts 306°
2026-05-06 16:16 54.24714 9.53219 15160 ft 323 kts 306°
2026-05-06 16:16 54.26091 9.50185 14708 ft 322 kts 307°
2026-05-06 16:16 54.27451 9.47192 14262 ft 321 kts 306°
2026-05-06 16:17 54.28821 9.44164 13866 ft 318 kts 307°
2026-05-06 16:17 54.30154 9.41230 13797 ft 305 kts 307°
2026-05-06 16:17 54.31428 9.38399 13425 ft 300 kts 307°
2026-05-06 16:17 54.32704 9.35586 12846 ft 297 kts 307°
2026-05-06 16:18 54.33958 9.32791 12240 ft 295 kts 307°
2026-05-06 16:18 54.35206 9.30038 11694 ft 292 kts 307°
2026-05-06 16:18 54.36430 9.27299 11289 ft 285 kts 308°
2026-05-06 16:18 54.37644 9.24617 10893 ft 281 kts 307°
2026-05-06 16:19 54.38811 9.22001 10506 ft 278 kts 308°
2026-05-06 16:19 54.39995 9.19384 10126 ft 276 kts 308°
2026-05-06 16:19 54.41164 9.16754 9736 ft 275 kts 308°
2026-05-06 16:19 54.42331 9.14169 9336 ft 273 kts 308°
2026-05-06 16:20 54.43466 9.11606 8955 ft 272 kts 308°
2026-05-06 16:20 54.44626 9.09031 8576 ft 270 kts 309°
2026-05-06 16:20 54.45767 9.06455 8198 ft 269 kts 309°
2026-05-06 16:20 54.46912 9.03910 7863 ft 267 kts 309°
2026-05-06 16:21 54.47993 9.01454 7513 ft 252 kts 310°
2026-05-06 16:21 54.49042 8.99111 7167 ft 239 kts 310°
2026-05-06 16:21 54.50019 8.96904 6847 ft 229 kts 311°
2026-05-06 16:21 54.50978 8.94755 6526 ft 221 kts 310°
2026-05-06 16:22 54.51890 8.92699 6220 ft 215 kts 311°
2026-05-06 16:22 54.52789 8.90667 5911 ft 209 kts 310°
2026-05-06 16:22 54.53657 8.88718 5629 ft 205 kts 311°
2026-05-06 16:22 54.54513 8.86773 5350 ft 205 kts 311°
2026-05-06 16:23 54.55425 8.84741 5053 ft 224 kts 310°
2026-05-06 16:23 54.56410 8.82496 4736 ft 243 kts 310°
2026-05-06 16:23 54.57468 8.80116 4390 ft 256 kts 309°
2026-05-06 16:23 54.58531 8.77678 4274 ft 256 kts 309°
2026-05-06 16:24 54.59616 8.75236 4156 ft 255 kts 309°
2026-05-06 16:24 54.60694 8.72792 4033 ft 254 kts 310°
2026-05-06 16:24 54.61776 8.70428 3908 ft 252 kts 315°
2026-05-06 16:24 54.63173 8.68641 3779 ft 248 kts 330°
2026-05-06 16:25 54.64587 8.66906 3654 ft 249 kts 326°
2026-05-06 16:25 54.65990 8.65208 3533 ft 249 kts 329°
2026-05-06 16:25 54.67416 8.63473 3408 ft 250 kts 328°
2026-05-06 16:25 54.68841 8.61724 3246 ft 251 kts 329°
2026-05-06 16:26 54.70256 8.60003 3072 ft 250 kts 328°
2026-05-06 16:26 54.71647 8.58295 3018 ft 238 kts 329°
2026-05-06 16:26 54.72972 8.56634 2990 ft 225 kts 328°
2026-05-06 16:26 54.74196 8.55167 2961 ft 203 kts 329°
2026-05-06 16:27 54.75234 8.53876 2972 ft 174 kts 331°
2026-05-06 16:27 54.76229 8.52667 2966 ft 173 kts 330°
2026-05-06 16:27 54.77216 8.51472 2959 ft 174 kts 332°
2026-05-06 16:27 54.78205 8.50308 2989 ft 174 kts 333°
2026-05-06 16:28 54.79221 8.49092 2830 ft 179 kts 332°
2026-05-06 16:28 54.80251 8.47830 2607 ft 179 kts 330°
2026-05-06 16:28 54.80917 8.46990 2461 ft 176 kts 330°
2026-05-06 16:28 54.82206 8.45364 2053 ft 168 kts 331°
2026-05-06 16:29 54.82828 8.44596 1907 ft 163 kts 330°
2026-05-06 16:29 54.83878 8.43281 1649 ft 119 kts 332°
2026-05-06 16:29 54.84303 8.42734 1517 ft 109 kts 333°
2026-05-06 16:29 54.84907 8.41985 1398 ft 103 kts 334°
2026-05-06 16:30 54.85488 8.41277 1259 ft 102 kts 335°
2026-05-06 16:30 54.85868 8.40809 1167 ft 100 kts 335°
2026-05-06 16:30 54.86591 8.39894 1000 ft 97 kts 333°
2026-05-06 16:30 54.87136 8.39217 870 ft 94 kts 335°
2026-05-06 16:31 54.87673 8.38578 730 ft 93 kts 333°
2026-05-06 16:31 54.88192 8.37920 615 ft 93 kts 333°
2026-05-06 16:31 54.88708 8.37265 482 ft 90 kts 335°
2026-05-06 16:31 54.89211 8.36650 353 ft 86 kts 336°
2026-05-06 16:32 54.89700 8.36051 236 ft 87 kts 335°
2026-05-06 16:32 54.90194 8.35441 114 ft 87 kts 334°
2026-05-06 16:32 54.90675 8.34841 47 ft 84 kts 333°
2026-05-06 16:32 54.91092 8.34323 41 ft 59 kts 337°
2026-05-06 16:33 54.91333 8.34040 34 ft 15 kts 342°
2026-05-06 16:33 54.91343 8.33999 34 ft 7 kts 156°
2026-05-06 16:33 54.91288 8.33933 33 ft 15 kts 248°
2026-05-06 16:34 54.91158 8.33549 28 ft 19 kts 236°
2026-05-06 16:34 54.91090 8.33355 30 ft 18 kts 239°
2026-05-06 16:34 54.91041 8.33196 30 ft 9 kts 250°
2026-05-06 16:34 54.91027 8.33117 31 ft 7 kts 255°
2026-05-06 16:35 54.91017 8.32992 33 ft 12 kts 292°
2026-05-06 16:35 54.91078 8.32872 35 ft 15 kts 313°
2026-05-06 16:35 54.91121 8.32789 34 ft 6 kts 311°
2026-05-06 16:35 54.91162 8.32710 31 ft 9 kts 311°
2026-05-06 16:36 54.91197 8.32631 29 ft 6 kts 319°
2026-05-06 16:36 54.91230 8.32593 27 ft 7 kts 329°
2026-05-06 16:36 54.91275 8.32544 25 ft 6 kts 298°
2026-05-06 16:36 54.91268 8.32509 25 ft 0 kts 236°